This is the latest recevied weather packets stored in our database for station/object DO6MJ-1. If no packets are shown the sender has not sent any weather packets the latest 10 day(s).
| Time | Temp. | Humidity | Pressure | Rain* | Wind** | Luminosity | Snow |
|---|---|---|---|---|---|---|---|
| 1787557433 | 17.22° C | 76% | 1016.2 hPa | 0 mm | - | - | - |
| 1787556233 | 17.22° C | 78% | 1016.1 hPa | 0 mm | - | - | - |
| 1787555033 | 16.11° C | 81% | 1016.1 hPa | 0 mm | - | - | - |
| 1787553832 | 15.56° C | 84% | 1016.1 hPa | 0 mm | - | - | - |
| 1787552632 | 14.44° C | 86% | 1016.2 hPa | 0 mm | - | - | - |
| 1787551432 | 13.89° C | 87% | 1016.1 hPa | 0 mm | - | - | - |
| 1787550232 | 13.33° C | 88% | 1016 hPa | 0 mm | - | - | - |
| 1787549031 | 12.78° C | 88% | 1015.9 hPa | 0 mm | - | - | - |
| 1787547831 | 12.22° C | 88% | 1015.9 hPa | 0 mm | - | - | - |
| 1787546631 | 11.67° C | 88% | 1015.8 hPa | 0 mm | - | - | - |
| 1787545430 | 11.67° C | 88% | 1015.6 hPa | 0 mm | - | - | - |
| 1787544230 | 11.11° C | 87% | 1015.6 hPa | 0 mm | - | - | - |
| 1787543030 | 11.11° C | 87% | 1015.5 hPa | 0 mm | - | - | - |
| 1787541830 | 11.11° C | 87% | 1015.4 hPa | 0 mm | - | - | - |
| 1787540629 | 11.11° C | 86% | 1015.5 hPa | 0 mm | - | - | - |
| 1787539429 | 10.56° C | 86% | 1015.4 hPa | 0 mm | - | - | - |
| 1787538229 | 10.56° C | 84% | 1015.3 hPa | 0 mm | - | - | - |
| 1787537029 | 11.67° C | 83% | 1015.3 hPa | 0 mm | - | - | - |
| 1787535828 | 12.22° C | 83% | 1015.4 hPa | 0 mm | - | - | - |
| 1787534628 | 12.22° C | 82% | 1015.4 hPa | 0 mm | - | - | - |
| 1787533428 | 12.78° C | 83% | 1015.3 hPa | 0 mm | - | - | - |
| 1787532227 | 12.78° C | 83% | 1015.2 hPa | 0 mm | - | - | - |
| 1787531027 | 12.78° C | 83% | 1015.2 hPa | 0 mm | - | - | - |
| 1787529827 | 12.78° C | 83% | 1015.2 hPa | 0 mm | - | - | - |
| 1787528626 | 12.22° C | 84% | 1015.4 hPa | 0 mm | - | - | - |
* Rain latest hour (hover to see other rain measurements)
** Current wind speed in m/s (hover to see current wind gust speed)